When you browse on this site, cookies collect data to enhance your experience and personalize the content and advertising you see.
Visit our Privacy Policy to learn more. By continuing to use the site, you agree to this use of cookies and data.
EN

Hourly Weather Pest County

Today, 9 July, Thursday

Time Temperature Precipitation Wind Pressure Humidity
00:00 +18°C° 0 mm 2 mps 743 mmHg 61%
01:00 +17°C° 0 mm 3 mps 743 mmHg 61%
02:00 +17°C° 0 mm 2 mps 743 mmHg 64%
03:00 +16°C° 0 mm 2 mps 743 mmHg 66%
04:00 +16°C° 0 mm 2 mps 743 mmHg 69%
05:00 +17°C° 0 mm 2 mps 744 mmHg 70%
06:00 +18°C° 0 mm 2 mps 744 mmHg 72%
07:00 +19°C° 0 mm 2 mps 744 mmHg 73%
08:00 +21°C° 0 mm 2 mps 745 mmHg 66%
09:00 +24°C° 0 mm 2 mps 745 mmHg 59%
10:00 +26°C° 0 mm 3 mps 745 mmHg 53%
11:00 +26°C° 0 mm 3 mps 745 mmHg 52%
12:00 +27°C° 0 mm 3 mps 745 mmHg 51%
13:00 +28°C° 0 mm 3 mps 745 mmHg 50%
14:00 +28°C° 0 mm 2 mps 745 mmHg 50%
15:00 +28°C° 0 mm 2 mps 744 mmHg 51%
16:00 +28°C° 0 mm 2 mps 744 mmHg 51%
17:00 +27°C° 0 mm 2 mps 744 mmHg 57%
18:00 +25°C° 0 mm 2 mps 743 mmHg 62%
19:00 +24°C° 0 mm 1 mps 743 mmHg 68%
20:00 +23°C° 0 mm 1 mps 743 mmHg 70%
21:00 +22°C° 0 mm 1 mps 743 mmHg 71%
22:00 +21°C° 0 mm 1 mps 743 mmHg 73%
23:00 +21°C° 0 mm 1 mps 743 mmHg 73%

Tomorrow, 10 July, Friday

Time Temperature Precipitation Wind Pressure Humidity
00:00 +20°C° 0 mm 1 mps 743 mmHg 74%
01:00 +20°C° 0 mm 1 mps 743 mmHg 74%
02:00 +20°C° 0 mm 1 mps 743 mmHg 76%
03:00 +19°C° 0 mm 1 mps 743 mmHg 77%
04:00 +19°C° 0 mm 1 mps 743 mmHg 79%
05:00 +20°C° 0 mm 1 mps 743 mmHg 76%
06:00 +22°C° 0 mm 1 mps 743 mmHg 72%
07:00 +23°C° 0 mm 2 mps 743 mmHg 69%
08:00 +25°C° 0 mm 2 mps 743 mmHg 63%
09:00 +26°C° 0 mm 3 mps 743 mmHg 58%
10:00 +28°C° 0 mm 3 mps 744 mmHg 52%
11:00 +29°C° 0 mm 3 mps 743 mmHg 50%
12:00 +30°C° 0 mm 4 mps 743 mmHg 48%
13:00 +32°C° 0 mm 4 mps 742 mmHg 46%
14:00 +32°C° 0 mm 4 mps 742 mmHg 47%
15:00 +32°C° 0 mm 4 mps 742 mmHg 47%
16:00 +32°C° 0 mm 4 mps 742 mmHg 48%
17:00 +30°C° 0 mm 4 mps 741 mmHg 54%
18:00 +28°C° 0 mm 3 mps 741 mmHg 60%
19:00 +27°C° 0 mm 3 mps 741 mmHg 66%
20:00 +26°C° 0 mm 3 mps 741 mmHg 69%
21:00 +24°C° 0 mm 2 mps 741 mmHg 71%
22:00 +23°C° 0 mm 2 mps 741 mmHg 74%
23:00 +23°C° 0 mm 2 mps 741 mmHg 75%

Day after tomorrow, 11 July, Saturday

Time Temperature Precipitation Wind Pressure Humidity
00:00 +21°C° 0 mm 2 mps 741 mmHg 77%
01:00 +21°C° 0 mm 2 mps 741 mmHg 78%
02:00 +20°C° 0 mm 2 mps 741 mmHg 79%
03:00 +20°C° 0 mm 2 mps 741 mmHg 80%
04:00 +20°C° 0 mm 2 mps 741 mmHg 80%
05:00 +21°C° 0 mm 2 mps 741 mmHg 75%
06:00 +22°C° 0 mm 3 mps 741 mmHg 69%
07:00 +24°C° 0 mm 3 mps 741 mmHg 64%
08:00 +26°C° 0 mm 4 mps 741 mmHg 60%
09:00 +27°C° 0 mm 4 mps 741 mmHg 56%
10:00 +28°C° 0 mm 4 mps 741 mmHg 52%
11:00 +29°C° 0 mm 4 mps 741 mmHg 51%
12:00 +30°C° 0 mm 4 mps 741 mmHg 50%
13:00 +32°C° 0 mm 4 mps 740 mmHg 49%
14:00 +32°C° 0.2 mm 4 mps 740 mmHg 51%
15:00 +32°C° 0.2 mm 4 mps 740 mmHg 52%
16:00 +30°C° 0.2 mm 4 mps 740 mmHg 54%
17:00 +28°C° 0.5 mm 4 mps 741 mmHg 63%
18:00 +26°C° 0.5 mm 4 mps 741 mmHg 72%
19:00 +23°C° 0.5 mm 5 mps 741 mmHg 80%
20:00 +21°C° 1 mm 4 mps 741 mmHg 83%
21:00 +20°C° 1 mm 4 mps 741 mmHg 85%
22:00 +18°C° 1 mm 4 mps 742 mmHg 87%
23:00 +18°C° 1.3 mm 3 mps 742 mmHg 88%

12 July, Sunday

Time Temperature Precipitation Wind Pressure Humidity
00:00 +17°C° 1.3 mm 3 mps 742 mmHg 88%
01:00 +17°C° 1.3 mm 2 mps 742 mmHg 89%
02:00 +17°C° 0.7 mm 2 mps 742 mmHg 89%
03:00 +16°C° 0.7 mm 3 mps 742 mmHg 89%
04:00 +16°C° 0.7 mm 3 mps 742 mmHg 89%
05:00 +16°C° 0.7 mm 3 mps 742 mmHg 90%
06:00 +14°C° 0.7 mm 3 mps 742 mmHg 90%
07:00 +14°C° 0.7 mm 3 mps 743 mmHg 90%
08:00 +14°C° 2.2 mm 4 mps 743 mmHg 89%
09:00 +14°C° 2.2 mm 4 mps 743 mmHg 88%
10:00 +14°C° 2.2 mm 4 mps 744 mmHg 86%
11:00 +15°C° 0 mm 4 mps 744 mmHg 83%
12:00 +15°C° 0 mm 4 mps 744 mmHg 80%
13:00 +15°C° 0 mm 4 mps 745 mmHg 76%
14:00 +17°C° 0 mm 4 mps 745 mmHg 72%
15:00 +17°C° 0 mm 4 mps 745 mmHg 67%
16:00 +18°C° 0 mm 3 mps 745 mmHg 63%
17:00 +17°C° 0 mm 3 mps 746 mmHg 66%
18:00 +16°C° 0 mm 2 mps 746 mmHg 69%
19:00 +16°C° 0 mm 2 mps 746 mmHg 72%
20:00 +15°C° 0 mm 1 mps 746 mmHg 73%
21:00 +14°C° 0 mm 1 mps 747 mmHg 75%
22:00 +13°C° 0 mm 1 mps 747 mmHg 77%
23:00 +13°C° 0 mm 1 mps 747 mmHg 79%

13 July, Monday

Time Temperature Precipitation Wind Pressure Humidity
00:00 +12°C° 0 mm 1 mps 747 mmHg 81%
01:00 +12°C° 0 mm 2 mps 747 mmHg 83%
02:00 +12°C° 0 mm 2 mps 747 mmHg 83%
03:00 +10°C° 0 mm 2 mps 746 mmHg 84%
04:00 +10°C° 0 mm 2 mps 746 mmHg 85%
05:00 +13°C° 0 mm 2 mps 746 mmHg 80%
06:00 +14°C° 0 mm 2 mps 746 mmHg 75%
07:00 +15°C° 0 mm 2 mps 746 mmHg 71%
08:00 +17°C° 0 mm 2 mps 746 mmHg 65%
09:00 +18°C° 0 mm 2 mps 746 mmHg 59%
10:00 +20°C° 0 mm 2 mps 746 mmHg 53%
11:00 +20°C° 0 mm 2 mps 746 mmHg 50%
12:00 +21°C° 0 mm 2 mps 746 mmHg 47%
13:00 +23°C° 0 mm 2 mps 745 mmHg 44%
14:00 +23°C° 0 mm 2 mps 745 mmHg 45%
15:00 +23°C° 0 mm 2 mps 745 mmHg 47%
16:00 +22°C° 0 mm 3 mps 744 mmHg 48%
17:00 +21°C° 0 mm 2 mps 744 mmHg 53%
18:00 +20°C° 0 mm 2 mps 744 mmHg 57%
19:00 +19°C° 0 mm 2 mps 744 mmHg 62%
20:00 +18°C° 0 mm 2 mps 744 mmHg 64%
21:00 +17°C° 0 mm 2 mps 744 mmHg 65%
22:00 +15°C° 0 mm 2 mps 744 mmHg 67%
23:00 +15°C° 0 mm 2 mps 744 mmHg 69%

14 July, Tuesday

Time Temperature Precipitation Wind Pressure Humidity
00:00 +14°C° 0 mm 2 mps 744 mmHg 71%
01:00 +14°C° 0 mm 2 mps 743 mmHg 73%
02:00 +14°C° 0 mm 2 mps 743 mmHg 74%
03:00 +13°C° 0 mm 2 mps 743 mmHg 76%
04:00 +13°C° 0 mm 2 mps 743 mmHg 77%
05:00 +14°C° 0 mm 2 mps 743 mmHg 74%
06:00 +15°C° 0 mm 2 mps 743 mmHg 71%
07:00 +17°C° 0 mm 2 mps 743 mmHg 67%
08:00 +18°C° 0 mm 2 mps 743 mmHg 62%
09:00 +20°C° 0 mm 2 mps 743 mmHg 57%
10:00 +22°C° 0 mm 1 mps 743 mmHg 51%
11:00 +23°C° 0 mm 2 mps 743 mmHg 49%
12:00 +24°C° 0 mm 2 mps 743 mmHg 46%
13:00 +25°C° 0 mm 2 mps 742 mmHg 43%
14:00 +25°C° 0 mm 2 mps 742 mmHg 44%
15:00 +25°C° 0 mm 2 mps 742 mmHg 45%
16:00 +25°C° 0 mm 2 mps 742 mmHg 45%
17:00 +24°C° 0 mm 2 mps 742 mmHg 51%
18:00 +21°C° 0 mm 2 mps 742 mmHg 57%
19:00 +20°C° 0 mm 2 mps 742 mmHg 62%
20:00 +20°C° 0 mm 1 mps 742 mmHg 64%
21:00 +19°C° 0 mm 1 mps 742 mmHg 66%
22:00 +18°C° 0 mm 1 mps 742 mmHg 68%
23:00 +18°C° 0 mm 1 mps 742 mmHg 70%
Show more